Year,Month,Day,Hour,Minute,Value (Times are PST for temperature in C)
2015,04,07,09,58,11.60
2015,04,07,09,59,11.60
2015,04,07,10,00,11.70
2015,04,07,10,01,11.70
2015,04,07,10,02,11.80
2015,04,07,10,03,11.80
2015,04,07,10,04,11.90
2015,04,07,10,05,11.90
2015,04,07,10,06,12.00
2015,04,07,10,07,12.00
2015,04,07,10,08,12.10
2015,04,07,10,09,12.20
2015,04,07,10,10,12.30
2015,04,07,10,11,12.30
2015,04,07,10,12,12.40
2015,04,07,10,13,12.40
2015,04,07,10,14,12.40
2015,04,07,10,15,12.40
2015,04,07,10,16,12.40
2015,04,07,10,17,12.40
2015,04,07,10,18,12.40
2015,04,07,10,19,12.40
2015,04,07,10,20,12.50
2015,04,07,10,21,12.50
2015,04,07,10,22,12.50
2015,04,07,10,23,12.50
2015,04,07,10,24,12.50
2015,04,07,10,25,12.60
2015,04,07,10,26,12.70
2015,04,07,10,27,12.70
2015,04,07,10,28,12.70
2015,04,07,10,29,12.70
2015,04,07,10,30,12.80
2015,04,07,10,31,12.80
2015,04,07,10,32,12.80
2015,04,07,10,33,12.90
2015,04,07,10,34,12.90
2015,04,07,10,35,12.90
2015,04,07,10,36,12.90
2015,04,07,10,37,12.90
2015,04,07,10,38,12.90
2015,04,07,10,39,13.00
2015,04,07,10,40,13.00
2015,04,07,10,41,13.00
2015,04,07,10,42,13.00
2015,04,07,10,43,13.00
2015,04,07,10,44,13.00
2015,04,07,10,45,13.00
2015,04,07,10,46,13.00
2015,04,07,10,47,13.10
2015,04,07,10,48,13.20
2015,04,07,10,49,13.20
2015,04,07,10,50,13.30
2015,04,07,10,51,13.30
2015,04,07,10,52,13.40
2015,04,07,10,53,13.40
2015,04,07,10,54,13.50
2015,04,07,10,55,13.50
2015,04,07,10,56,13.60
2015,04,07,10,57,13.50
2015,04,07,10,58,13.50
2015,04,07,10,59,13.50
2015,04,07,11,00,13.60
2015,04,07,11,01,13.50
2015,04,07,11,02,13.50
2015,04,07,11,03,13.50
2015,04,07,11,04,13.50
2015,04,07,11,05,13.40
2015,04,07,11,06,13.40
2015,04,07,11,07,13.30
2015,04,07,11,08,13.30
2015,04,07,11,09,13.40
2015,04,07,11,10,13.40
2015,04,07,11,11,13.40
2015,04,07,11,12,13.40
2015,04,07,11,13,13.40
2015,04,07,11,14,13.40
2015,04,07,11,15,13.40
2015,04,07,11,16,13.40
2015,04,07,11,17,13.40
2015,04,07,11,18,13.40
2015,04,07,11,19,13.40
2015,04,07,11,20,13.40
2015,04,07,11,21,13.50
2015,04,07,11,22,13.60
2015,04,07,11,23,13.70
2015,04,07,11,24,13.70
2015,04,07,11,25,13.70
2015,04,07,11,26,13.70
2015,04,07,11,27,13.70
2015,04,07,11,28,13.60
2015,04,07,11,29,13.70
2015,04,07,11,30,13.70
2015,04,07,11,31,13.70
2015,04,07,11,32,13.80
2015,04,07,11,33,13.80
2015,04,07,11,34,13.80
2015,04,07,11,35,13.90
2015,04,07,11,36,13.90
2015,04,07,11,37,13.90
2015,04,07,11,38,13.80
2015,04,07,11,39,13.80
2015,04,07,11,40,13.80
2015,04,07,11,41,13.80
2015,04,07,11,42,13.90
2015,04,07,11,43,14.00
2015,04,07,11,44,14.10
2015,04,07,11,45,14.10
2015,04,07,11,46,14.20
2015,04,07,11,47,14.20
2015,04,07,11,48,14.30
2015,04,07,11,49,14.30
2015,04,07,11,50,14.30
2015,04,07,11,51,14.30
2015,04,07,11,52,14.30
2015,04,07,11,53,14.20
2015,04,07,11,54,14.20
2015,04,07,11,55,14.10
2015,04,07,11,56,14.10
2015,04,07,11,57,14.10
2015,04,07,11,58,14.10
2015,04,07,11,59,14.20
2015,04,07,12,00,14.20
2015,04,07,12,01,14.20
2015,04,07,12,02,14.20
2015,04,07,12,03,14.20
2015,04,07,12,04,14.20
2015,04,07,12,05,14.10
2015,04,07,12,06,14.10
2015,04,07,12,07,14.20
2015,04,07,12,08,14.20
2015,04,07,12,09,14.30
2015,04,07,12,10,14.30
2015,04,07,12,11,14.40
2015,04,07,12,12,14.40
2015,04,07,12,13,14.40
2015,04,07,12,14,14.30
2015,04,07,12,15,14.30
2015,04,07,12,16,14.30
2015,04,07,12,17,14.30
2015,04,07,12,18,14.30
2015,04,07,12,19,14.30
2015,04,07,12,20,14.30
2015,04,07,12,21,14.30
2015,04,07,12,22,14.40
2015,04,07,12,23,14.40
2015,04,07,12,24,14.30
2015,04,07,12,25,14.40
2015,04,07,12,26,14.50
2015,04,07,12,27,14.60
2015,04,07,12,28,14.60
2015,04,07,12,29,14.70
2015,04,07,12,30,14.60
2015,04,07,12,31,14.60
2015,04,07,12,32,14.70
2015,04,07,12,33,14.70
2015,04,07,12,34,14.70
2015,04,07,12,35,14.70
2015,04,07,12,36,14.70
2015,04,07,12,37,14.60
2015,04,07,12,38,14.50
2015,04,07,12,39,14.50
2015,04,07,12,40,14.50
2015,04,07,12,41,14.60
2015,04,07,12,42,14.70
2015,04,07,12,43,14.90
2015,04,07,12,44,15.10
2015,04,07,12,45,15.20
2015,04,07,12,46,15.30
2015,04,07,12,47,15.40
2015,04,07,12,48,15.40
2015,04,07,12,49,15.30
2015,04,07,12,50,15.10
2015,04,07,12,51,14.90
2015,04,07,12,52,14.90
2015,04,07,12,53,14.90
2015,04,07,12,54,14.90
2015,04,07,12,55,14.90
2015,04,07,12,56,14.90
2015,04,07,12,57,14.90
2015,04,07,12,58,14.90
2015,04,07,12,59,14.90
2015,04,07,13,00,14.90
2015,04,07,13,01,14.90
2015,04,07,13,02,14.90
2015,04,07,13,03,15.00
2015,04,07,13,04,15.00
2015,04,07,13,05,15.10
2015,04,07,13,06,15.20
2015,04,07,13,07,15.20
2015,04,07,13,08,15.30
2015,04,07,13,09,15.30
2015,04,07,13,10,15.40
2015,04,07,13,11,15.50
2015,04,07,13,12,15.50
2015,04,07,13,13,15.60
2015,04,07,13,14,15.50
2015,04,07,13,15,15.50
2015,04,07,13,16,15.40
2015,04,07,13,17,15.40
2015,04,07,13,18,15.30
2015,04,07,13,19,15.30
2015,04,07,13,20,15.30
2015,04,07,13,21,15.30
2015,04,07,13,22,15.30
2015,04,07,13,23,15.40
2015,04,07,13,24,15.40
2015,04,07,13,25,15.40
2015,04,07,13,26,15.50
2015,04,07,13,27,15.60
2015,04,07,13,28,15.70
2015,04,07,13,29,15.70
2015,04,07,13,30,15.70
2015,04,07,13,31,15.70
2015,04,07,13,32,15.60
2015,04,07,13,33,15.40
2015,04,07,13,34,15.40
2015,04,07,13,35,15.30
2015,04,07,13,36,15.30
2015,04,07,13,37,15.30
2015,04,07,13,38,15.30
2015,04,07,13,39,15.40
2015,04,07,13,40,15.50
2015,04,07,13,41,15.60
2015,04,07,13,42,15.50
2015,04,07,13,43,15.50
2015,04,07,13,44,15.40
2015,04,07,13,45,15.40
2015,04,07,13,46,15.40
2015,04,07,13,47,15.40
2015,04,07,13,48,15.30
2015,04,07,13,49,15.30
2015,04,07,13,50,15.30
2015,04,07,13,51,15.30
2015,04,07,13,52,15.30
2015,04,07,13,53,15.30
2015,04,07,13,54,15.30
2015,04,07,13,55,15.30
2015,04,07,13,56,15.40
2015,04,07,13,57,15.40
2015,04,07,13,58,15.40
2015,04,07,13,59,15.40
2015,04,07,14,00,15.40
2015,04,07,14,01,15.40
2015,04,07,14,02,15.50
2015,04,07,14,03,15.60
2015,04,07,14,04,15.70
2015,04,07,14,05,15.80
2015,04,07,14,06,15.90
2015,04,07,14,07,16.00
2015,04,07,14,08,16.00
2015,04,07,14,09,16.00
2015,04,07,14,10,15.90
2015,04,07,14,11,15.90
2015,04,07,14,12,15.90
2015,04,07,14,13,16.00
2015,04,07,14,14,16.10
2015,04,07,14,15,16.10
2015,04,07,14,16,16.20
2015,04,07,14,17,16.20
2015,04,07,14,18,16.20
2015,04,07,14,19,16.20
2015,04,07,14,20,16.20
2015,04,07,14,21,16.20
2015,04,07,14,22,16.10
2015,04,07,14,23,16.10
2015,04,07,14,24,16.20
2015,04,07,14,25,16.30
2015,04,07,14,26,16.30
2015,04,07,14,27,16.30
2015,04,07,14,28,16.30
2015,04,07,14,29,16.30
2015,04,07,14,30,16.20
2015,04,07,14,31,16.20
2015,04,07,14,32,16.10
2015,04,07,14,33,16.10
2015,04,07,14,34,16.10
2015,04,07,14,35,16.10
2015,04,07,14,36,16.20
2015,04,07,14,37,16.30
2015,04,07,14,38,16.30
2015,04,07,14,39,16.20
2015,04,07,14,40,16.20
2015,04,07,14,41,16.10
2015,04,07,14,42,16.00
2015,04,07,14,43,15.90
2015,04,07,14,44,15.70
2015,04,07,14,45,15.70
2015,04,07,14,46,15.60
2015,04,07,14,47,15.50
2015,04,07,14,48,15.50
2015,04,07,14,49,15.50
2015,04,07,14,50,15.60
2015,04,07,14,51,15.70
2015,04,07,14,52,15.80
2015,04,07,14,53,15.90
2015,04,07,14,54,16.00
2015,04,07,14,55,16.10
2015,04,07,14,56,16.20
2015,04,07,14,57,16.20
2015,04,07,14,58,16.30
2015,04,07,14,59,16.20
2015,04,07,15,00,16.10
2015,04,07,15,01,16.10
2015,04,07,15,02,16.00
2015,04,07,15,03,16.10
2015,04,07,15,04,16.10
2015,04,07,15,05,16.20
2015,04,07,15,06,16.30
2015,04,07,15,07,16.40
2015,04,07,15,08,16.40
2015,04,07,15,09,16.50
2015,04,07,15,10,16.40
2015,04,07,15,11,16.30
2015,04,07,15,12,16.20
2015,04,07,15,13,16.20
2015,04,07,15,14,16.10
2015,04,07,15,15,16.10
2015,04,07,15,16,16.20
2015,04,07,15,17,16.30
2015,04,07,15,18,16.50
2015,04,07,15,19,16.60
2015,04,07,15,20,16.70
2015,04,07,15,21,16.70
2015,04,07,15,22,16.80
2015,04,07,15,23,16.80
2015,04,07,15,24,16.90
2015,04,07,15,25,17.00
2015,04,07,15,26,17.10
2015,04,07,15,27,17.20
2015,04,07,15,28,17.20
2015,04,07,15,29,17.10
2015,04,07,15,30,16.90
2015,04,07,15,31,16.80
2015,04,07,15,32,16.70
2015,04,07,15,33,16.60
2015,04,07,15,34,16.60
2015,04,07,15,35,16.60
2015,04,07,15,36,16.50
2015,04,07,15,37,16.50
2015,04,07,15,38,16.50
2015,04,07,15,39,16.50
2015,04,07,15,40,16.50
2015,04,07,15,41,16.30
2015,04,07,15,42,16.20
2015,04,07,15,43,16.10
2015,04,07,15,44,16.10
2015,04,07,15,45,16.10
2015,04,07,15,46,16.00
2015,04,07,15,47,16.00
2015,04,07,15,48,15.90
2015,04,07,15,49,15.90
2015,04,07,15,50,15.80
2015,04,07,15,51,15.80
2015,04,07,15,52,15.80
2015,04,07,15,53,15.80
2015,04,07,15,54,15.80
2015,04,07,15,55,15.80
2015,04,07,15,56,15.90
2015,04,07,15,57,15.90
2015,04,07,15,58,15.90
2015,04,07,15,59,15.90
2015,04,07,16,00,16.00
2015,04,07,16,01,15.90
2015,04,07,16,02,15.80
2015,04,07,16,03,15.70
2015,04,07,16,04,15.70
2015,04,07,16,05,15.70
2015,04,07,16,06,15.60
2015,04,07,16,07,15.60
2015,04,07,16,08,15.60
2015,04,07,16,09,15.50
2015,04,07,16,10,15.60
2015,04,07,16,11,15.60
2015,04,07,16,12,15.70
2015,04,07,16,13,15.70
2015,04,07,16,14,15.70
2015,04,07,16,15,15.80
2015,04,07,16,16,15.80
2015,04,07,16,17,15.90
2015,04,07,16,18,16.00
2015,04,07,16,19,16.10
2015,04,07,16,20,16.10
2015,04,07,16,21,16.10
2015,04,07,16,22,16.10
2015,04,07,16,23,16.10
2015,04,07,16,24,16.10
2015,04,07,16,25,16.10
2015,04,07,16,26,15.90
2015,04,07,16,27,15.90
2015,04,07,16,28,15.90
2015,04,07,16,29,15.90
2015,04,07,16,30,16.00
2015,04,07,16,31,16.00
2015,04,07,16,32,16.10
2015,04,07,16,33,16.10
2015,04,07,16,34,16.10
2015,04,07,16,35,16.00
2015,04,07,16,36,16.00
2015,04,07,16,37,16.00
2015,04,07,16,38,16.00
2015,04,07,16,39,16.10
2015,04,07,16,40,16.20
2015,04,07,16,41,16.30
2015,04,07,16,42,16.30
2015,04,07,16,43,16.20
2015,04,07,16,44,16.10
2015,04,07,16,45,16.00
2015,04,07,16,46,15.90
2015,04,07,16,47,15.80
2015,04,07,16,48,15.80
2015,04,07,16,49,15.80
2015,04,07,16,50,15.80
2015,04,07,16,51,15.90
2015,04,07,16,52,15.90
2015,04,07,16,53,16.00
2015,04,07,16,54,16.00
2015,04,07,16,55,16.10
2015,04,07,16,56,16.10
2015,04,07,16,57,16.20
2015,04,07,16,58,16.20
2015,04,07,16,59,16.20
2015,04,07,17,00,16.20
2015,04,07,17,01,16.10
2015,04,07,17,02,16.10
2015,04,07,17,03,16.20
2015,04,07,17,04,16.30
2015,04,07,17,05,16.30
2015,04,07,17,06,16.20
2015,04,07,17,07,16.10
2015,04,07,17,08,16.10
2015,04,07,17,09,16.00
2015,04,07,17,10,15.90
2015,04,07,17,11,15.90
2015,04,07,17,12,15.90
2015,04,07,17,13,16.00
2015,04,07,17,14,16.10
2015,04,07,17,15,16.10
2015,04,07,17,16,16.10
2015,04,07,17,17,16.10
2015,04,07,17,18,16.10
2015,04,07,17,19,16.00
2015,04,07,17,20,16.00
2015,04,07,17,21,15.90
2015,04,07,17,22,16.00
2015,04,07,17,23,16.00
2015,04,07,17,24,16.10
2015,04,07,17,25,16.10
2015,04,07,17,26,16.20
2015,04,07,17,27,16.20
2015,04,07,17,28,16.20
2015,04,07,17,29,16.30
2015,04,07,17,30,16.30
2015,04,07,17,31,16.30
2015,04,07,17,32,16.20
2015,04,07,17,33,16.10
2015,04,07,17,34,16.20
2015,04,07,17,35,16.20
2015,04,07,17,36,16.20
2015,04,07,17,37,16.20
2015,04,07,17,38,16.20
2015,04,07,17,39,16.10
2015,04,07,17,40,16.10
2015,04,07,17,41,16.10
2015,04,07,17,42,16.00
2015,04,07,17,43,16.00
2015,04,07,17,44,15.90
2015,04,07,17,45,15.90
2015,04,07,17,46,15.80
2015,04,07,17,47,15.80
2015,04,07,17,48,15.80
2015,04,07,17,49,15.80
2015,04,07,17,50,15.80
2015,04,07,17,51,15.80
2015,04,07,17,52,15.80
2015,04,07,17,53,15.70
2015,04,07,17,54,15.70
2015,04,07,17,55,15.60
2015,04,07,17,56,15.60
2015,04,07,17,57,15.60
2015,04,07,17,58,15.60
2015,04,07,17,59,15.50
2015,04,07,18,00,15.50
2015,04,07,18,01,15.60
2015,04,07,18,02,15.60
2015,04,07,18,03,15.60
2015,04,07,18,04,15.60
2015,04,07,18,05,15.50
2015,04,07,18,06,15.50
2015,04,07,18,07,15.50
2015,04,07,18,08,15.40
2015,04,07,18,09,15.40
2015,04,07,18,10,15.40
2015,04,07,18,11,15.40
2015,04,07,18,12,15.40
2015,04,07,18,13,15.30
2015,04,07,18,14,15.30
2015,04,07,18,15,15.30
2015,04,07,18,16,15.30
2015,04,07,18,17,15.20
2015,04,07,18,18,15.30
2015,04,07,18,19,15.30
2015,04,07,18,20,15.30
2015,04,07,18,21,15.30
2015,04,07,18,22,15.30
2015,04,07,18,23,15.30
2015,04,07,18,24,15.30
2015,04,07,18,25,15.30
2015,04,07,18,26,15.30
2015,04,07,18,27,15.30
2015,04,07,18,28,15.30
2015,04,07,18,29,15.20
2015,04,07,18,30,15.20
2015,04,07,18,31,15.20
2015,04,07,18,32,15.20
2015,04,07,18,33,15.10
2015,04,07,18,34,15.00
2015,04,07,18,35,14.90
2015,04,07,18,36,14.80
2015,04,07,18,37,14.80
2015,04,07,18,38,14.80
2015,04,07,18,39,14.70
2015,04,07,18,40,14.70
2015,04,07,18,41,14.60
2015,04,07,18,42,14.60
2015,04,07,18,43,14.60
2015,04,07,18,44,14.50
2015,04,07,18,45,14.40
2015,04,07,18,46,14.40
2015,04,07,18,47,14.30
2015,04,07,18,48,14.30
2015,04,07,18,49,14.30
2015,04,07,18,50,14.30
2015,04,07,18,51,14.20
2015,04,07,18,52,14.20
2015,04,07,18,53,14.20
2015,04,07,18,54,14.20
2015,04,07,18,55,14.20
2015,04,07,18,56,14.10
2015,04,07,18,57,14.10
2015,04,07,18,58,14.00
2015,04,07,18,59,14.00
2015,04,07,19,00,13.90
2015,04,07,19,01,13.90
2015,04,07,19,02,13.90
2015,04,07,19,03,13.80
2015,04,07,19,04,13.80
2015,04,07,19,05,13.70
2015,04,07,19,06,13.60
2015,04,07,19,07,13.60
2015,04,07,19,08,13.60
2015,04,07,19,09,13.60
2015,04,07,19,10,13.50
2015,04,07,19,11,13.50
2015,04,07,19,12,13.40
2015,04,07,19,13,13.40
2015,04,07,19,14,13.30
2015,04,07,19,15,13.30
2015,04,07,19,16,13.20
2015,04,07,19,17,13.20
2015,04,07,19,18,13.10
2015,04,07,19,19,13.00
2015,04,07,19,20,12.90
2015,04,07,19,21,12.80
2015,04,07,19,22,12.70
2015,04,07,19,23,12.60
2015,04,07,19,24,12.50
2015,04,07,19,25,12.40
2015,04,07,19,26,12.40
2015,04,07,19,27,12.40
2015,04,07,19,28,12.40
2015,04,07,19,29,12.40
2015,04,07,19,30,12.40
2015,04,07,19,31,12.40
2015,04,07,19,32,12.40
2015,04,07,19,33,12.40
2015,04,07,19,34,12.40
2015,04,07,19,35,12.40
